Wetbulb
65.63 60.60 62.66 59.28 50.23 50.77 46.53 53.12 60.63 59.64 60.17 64.36 64.05 61.69 60.24 62.56 61.36 59.34 71.40 72.61 73.58 74.83 76.59 77.76 78.19 78.35 77.93 77.47 77.04 76.68 76.73 76.33 75.91 75.81 76.16 76.60 76.86 76.91 76.73 76.61 76.51 76.94 76.84 76.52 76.08 75.64 75.12 74.71 74.45
62.20 59.26 57.98 52.19 46.49 44.36 47.65 56.90 57.86 61.62 63.77 64.59 64.21 62.85 60.20 59.74 65.48 68.45 69.13 72.53 73.74 75.05 75.56 76.90 78.29 78.02 77.82 77.42 76.86 76.73 76.90 76.56 75.98 75.98 76.03 76.26 76.85 76.93 77.01 77.06 76.84 76.79 76.11 76.05 75.80 75.60 75.19 74.57 74.06
61.58 59.97 51.09 48.35 44.51 44.35 47.72 57.89 60.42 62.73 64.85 63.40 61.81 64.60 62.78 61.82 69.24 70.06 71.72 72.48 73.21 73.92 75.91 77.06 78.03 77.86 77.75 77.34 76.78 76.70 76.87 76.70 76.08 76.06 76.11 76.13 76.65 76.85 76.68 77.06 77.09 77.17 75.98 75.61 75.29 74.94 74.56 74.08 73.73
55.12 52.62 50.34 46.06 45.59 48.19 50.55 57.41 62.44 62.10 62.95 63.24 62.78 64.08 68.57 69.90 71.51 71.85 72.68 71.97 72.11 73.61 75.85 77.44 77.77 77.76 77.57 77.17 76.91 76.75 76.84 76.82 76.18 76.31 76.26 76.20 76.45 76.48 76.47 76.68 76.84 76.82 75.99 75.55 74.98 74.32 74.12 73.64 72.96
52.36 49.30 44.79 43.12 46.30 49.25 53.78 56.25 61.96 60.27 61.15 62.45 64.72 65.62 66.92 72.23 73.43 72.69 71.57 72.29 71.34 72.71 75.40 76.65 77.49 77.53 77.39 77.22 76.64 76.83 76.77 76.64 76.32 76.38 76.26 76.23 76.39 76.28 76.48 76.52 76.51 76.42 76.11 75.24 74.82 74.33 74.11 73.76 73.28
49.34 49.75 44.76 42.15 46.89 52.69 53.27 56.73 55.15 61.68 62.40 60.59 61.36 67.08 66.55 72.72 71.94 71.82 72.11 71.71 72.27 72.45 74.50 75.88 77.43 77.41 77.32 77.08 76.90 76.57 76.34 76.43 76.54 76.47 76.40 76.34 76.08 75.94 76.12 76.12 76.18 76.09 75.99 75.71 75.06 74.74 74.24 73.74 73.54
47.48 46.86 45.86 46.21 50.45 51.57 54.41 57.77 53.31 53.88 65.24 64.66 68.82 64.86 67.26 71.11 72.90 72.93 72.16 72.49 72.33 71.88 72.96 74.10 75.38 76.48 77.30 76.98 76.55 76.35 76.05 76.08 76.17 76.00 76.00 76.08 75.95 75.86 75.76 75.56 75.70 75.88 75.78 75.56 75.56 75.30 74.85 74.50 74.06
50.49 48.69 47.06 48.71 49.93 50.05 56.69 57.28 52.79 53.26 52.87 68.36 69.00 63.33 63.66 70.73 73.74 73.18 72.69 72.39 70.34 70.51 71.46 72.16 73.30 74.50 74.82 75.44 76.75 76.37 76.42 76.41 76.15 76.23 76.21 76.06 75.92 75.52 75.58 74.74 75.08 75.87 75.77 75.45 75.22 74.97 74.89 74.79 74.49
52.47 46.24 45.70 48.87 49.64 51.66 55.92 54.58 57.01 57.00 54.04 56.90 60.68 64.45 66.06 70.51 73.22 72.31 72.05 70.89 69.64 69.76 70.37 71.17 72.31 72.34 73.02 73.82 75.33 76.22 76.54 76.49 76.12 76.03 75.88 74.62 73.12 73.33 73.79 74.37 74.79 75.54 75.46 75.27 74.89 74.67 74.82 74.78 74.81
49.09 45.07 49.27 53.79 53.28 53.90 55.21 54.94 54.37 53.31 53.03 51.64 56.16 61.20 62.96 63.48 68.30 70.81 70.97 69.09 68.90 68.80 69.40 70.75 71.29 71.16 71.59 72.79 73.19 73.07 74.38 74.45 73.82 73.72 73.52 72.13 70.99 71.20 72.71 73.70 74.84 75.15 75.15 74.90 74.67 74.64 74.84 74.86 72.95
48.00 46.53 52.40 54.28 55.80 56.23 56.04 56.98 55.66 50.61 50.54 50.87 51.34 52.69 54.00 54.26 53.54 59.67 66.92 70.58 69.83 69.86 70.05 70.54 70.27 70.62 70.33 70.79 72.22 71.95 72.29 72.27 71.59 71.87 71.90 70.38 70.46 69.46 70.72 70.00 70.98 71.56 73.94 72.38 73.38 73.28 73.30 72.89 72.16
45.64 50.87 53.63 53.92 55.39 56.17 56.55 58.20 53.53 50.41 50.86 53.46 53.43 54.26 53.29 53.23 52.74 52.94 61.55 64.84 70.26 70.14 70.78 71.24 71.21 70.68 69.91 71.48 70.59 70.36 70.81 70.31 69.73 70.06 70.64 68.33 68.31 68.70 69.06 69.62 69.41 70.29 71.14 71.56 71.29 70.69 71.06 71.29 71.15
47.74 49.60 51.34 54.77 54.04 54.50 56.93 55.32 55.57 51.10 52.88 54.42 53.10 53.84 52.89 52.14 53.28 52.94 59.52 66.31 70.71 70.11 71.02 71.28 72.08 71.37 71.44 70.54 69.93 70.29 69.85 69.91 69.60 69.62 70.33 71.06 69.71 70.04 69.99 69.78 70.78 70.31 70.52 70.72 70.20 67.43 67.68 68.34 67.77
49.88 49.80 50.74 52.65 53.08 49.57 50.46 50.23 50.99 55.86 54.28 53.78 53.57 52.26 52.26 53.97 54.29 54.32 56.65 60.33 69.64 69.80 70.80 71.38 72.18 72.88 72.32 71.28 70.82 70.88 71.07 70.29 70.26 70.64 72.10 71.85 70.68 70.02 70.11 70.26 71.15 70.17 70.08 69.91 68.68 66.80 63.83 61.36 60.98
49.28 45.56 46.84 48.02 49.59 49.18 50.24 47.61 48.36 52.20 52.53 52.19 52.51 52.11 53.68 55.59 55.20 53.45 54.91 60.06 62.30 65.94 67.48 71.33 70.72 71.67 72.38 71.97 72.28 72.23 72.63 72.24 71.35 71.29 71.64 71.14 70.85 68.53 68.36 69.19 66.20 65.47 64.04 63.14 62.82 61.19 59.88 58.90 60.85
44.99 43.81 39.86 44.26 48.73 50.09 49.12 44.43 49.88 51.72 50.42 50.36 51.83 52.44 53.40 55.87 57.14 57.99 58.97 59.04 60.30 62.44 66.84 69.28 73.08 70.78 71.98 72.47 72.44 72.12 71.61 69.39 69.48 68.69 69.64 70.22 71.03 69.23 68.52 69.42 64.07 61.35 62.28 61.38 60.41 60.11 58.91 59.28 59.64
41.24 37.80 39.52 43.62 48.78 48.99 46.64 44.73 48.85 51.59 50.73 49.61 50.41 51.47 56.78 57.42 58.52 59.27 60.93 62.09 61.63 60.49 62.38 69.83 72.60 72.26 73.05 73.06 73.80 71.62 71.15 70.75 69.91 70.07 70.07 67.25 67.99 69.33 66.66 64.81 62.22 61.27 61.50 60.76 60.41 59.06 59.43 58.58 58.97
38.32 38.62 41.85 42.52 46.46 46.05 43.42 44.14 47.29 51.27 49.86 49.38 49.86 54.23 56.08 56.45 56.42 61.93 63.62 66.18 67.06 66.84 65.73 64.79 69.91 71.99 72.13 72.22 71.66 71.27 69.69 69.71 69.69 69.35 69.55 67.32 68.58 69.13 64.21 61.73 61.37 61.30 59.92 59.41 59.72 59.31 59.27 58.66 57.80
42.71 43.40 41.18 44.99 47.25 43.48 41.53 43.35 45.99 49.15 49.55 48.98 49.05 54.59 55.38 56.85 58.02 61.56 64.07 65.37 66.03 65.47 64.68 65.82 65.58 65.54 67.34 69.37 68.20 68.51 65.32 66.71 67.52 67.91 68.02 65.90 64.96 63.98 62.15 61.63 60.33 59.59 58.57 58.67 58.80 58.03 56.90 55.26 56.87
43.14 41.51 41.01 45.14 47.69 45.25 43.39 43.29 46.69 48.43 48.11 48.42 50.01 54.57 56.42 56.21 59.07 61.52 62.68 63.61 63.34 61.74 61.66 62.01 61.23 61.90 63.67 64.77 64.88 65.42 64.25 64.20 64.61 63.79 64.02 64.06 64.01 63.56 62.15 60.15 59.08 58.83 57.47 56.03 56.41 56.38 55.59 55.50 55.31
41.74 41.51 42.34 42.52 45.52 45.07 42.53 40.57 43.54 47.53 50.24 50.65 53.70 55.89 57.44 57.70 58.32 59.86 61.07 61.54 61.29 60.09 60.20 60.41 60.48 60.54 61.18 61.80 62.18 63.10 63.25 62.84 61.97 61.98 61.84 62.21 63.27 63.06 60.95 60.08 59.18 57.52 55.93 55.70 55.98 55.29 54.30 53.58 54.37
38.79 44.80 44.74 44.29 40.36 36.99 42.45 32.31 39.52 43.63 46.28 51.54 53.69 54.71 55.06 56.38 57.17 58.14 58.84 59.89 59.59 59.02 59.72 59.23 58.87 59.47 59.75 60.26 60.00 59.31 59.21 58.72 60.11 61.98 61.31 61.76 61.17 60.81 59.84 58.89 58.45 57.36 55.81 54.81 55.35 57.15 54.77 53.34 52.03
43.25 46.07 43.10 42.98 38.24 35.38 37.82 33.76 38.68 43.47 44.40 46.08 49.42 52.08 52.24 55.01 56.38 55.74 56.93 58.54 58.98 59.43 58.53 57.57 56.69 56.62 57.46 58.17 58.78 59.44 59.76 60.51 60.46 59.20 60.22 60.22 60.69 59.98 60.46 58.53 56.99 55.67 55.55 55.51 54.85 54.40 54.22 53.77 53.06
48.05 43.59 40.15 38.15 35.70 30.96 37.04 35.74 38.96 41.32 45.41 47.84 49.33 50.22 51.27 52.32 52.20 52.86 53.45 54.02 53.72 55.34 56.34 54.12 53.31 54.70 56.21 56.47 57.00 56.91 56.84 58.42 58.47 59.41 58.91 59.15 58.90 58.88 57.45 57.30 56.01 56.02 55.03 54.36 54.36 54.30 53.61 53.40 52.91
41.83 35.24 29.11 29.62 29.54 30.63 39.23 39.19 36.65 46.65 48.89 49.01 48.79 49.76 50.64 51.08 50.96 51.00 50.84 51.24 52.08 52.33 53.38 53.64 52.16 50.90 52.30 55.81 56.34 55.93 55.20 55.91 56.55 57.30 57.90 57.57 57.11 56.72 55.74 55.76 55.24 55.98 55.22 54.83 54.17 53.36 53.41 53.31 52.62
38.39 37.28 31.04 26.55 27.21 30.44 40.58 35.85 39.46 48.78 49.63 50.40 50.09 49.15 49.52 49.37 50.31 49.75 50.06 50.11 51.01 51.94 51.89 51.65 52.22 52.05 53.76 51.53 52.50 55.64 56.18 55.02 54.89 55.15 54.97 54.70 54.30 54.65 55.66 54.69 54.93 55.16 55.83 55.40 54.48 53.22 52.91 53.29 53.31
38.87 35.98 37.97 32.68 31.42 31.08 35.47 40.65 44.53 46.92 45.83 45.72 44.98 45.24 44.38 45.01 45.85 46.63 47.14 47.88 47.26 47.92 48.49 50.34 49.40 50.15 52.61 53.36 53.29 51.69 53.53 53.82 54.54 55.24 56.43 54.64 54.48 56.42 54.81 55.36 54.88 55.86 55.81 55.15 53.42 53.23 52.16 52.60 52.73
39.69 42.09 34.22 31.52 25.83 24.29 32.53 34.61 35.32 40.54 40.40 42.40 42.44 42.20 43.30 44.11 44.33 44.58 45.03 45.16 45.47 45.40 46.16 47.64 48.57 48.21 48.44 51.03 51.08 51.99 52.18 53.50 53.81 54.73 54.76 54.56 54.70 55.14 55.72 55.11 54.61 55.46 54.63 53.93 52.94 53.35 53.07 52.02 53.31
40.02 37.28 36.24 33.86 32.37 26.48 25.56 30.51 40.06 38.86 40.25 40.17 41.18 42.25 41.71 41.82 42.23 43.16 43.76 44.63 45.08 44.99 44.42 45.32 45.34 45.57 46.11 48.81 49.64 50.02 50.56 51.88 52.32 52.72 53.32 53.73 52.81 53.79 53.83 54.99 55.14 54.98 53.55 52.38 50.66 49.40 51.61 51.83 51.59
42.58 39.30 36.14 29.52 30.54 31.23 29.17 27.83 41.51 40.82 41.05 40.69 40.55 41.71 41.91 41.67 41.91 42.29 42.98 43.68 43.70 43.74 44.00 44.11 43.87 43.53 44.43 47.07 46.74 46.58 47.97 49.07 49.26 49.80 50.70 51.35 51.26 52.01 52.33 52.88 53.25 53.58 53.51 51.79 49.09 48.71 50.89 50.76 50.93
MSLP
1009.82 1009.88 1010.13 1010.54 1011.35 1010.80 1010.88 1010.42 1009.68 1010.76 1010.38 1009.62 1009.25 1008.98 1008.77 1008.37 1008.47 1009.36 1008.52 1008.98 1009.76 1010.67 1010.98 1011.04 1010.87 1011.40 1011.73 1011.94 1012.07 1012.20 1012.40 1012.56 1012.68 1012.77 1012.92 1013.08 1013.17 1013.33 1013.52 1013.59 1013.76 1013.97 1014.12 1014.20 1014.33 1014.42 1014.46 1014.49 1014.46
1009.48 1009.54 1009.97 1010.23 1010.79 1010.47 1010.30 1009.52 1008.92 1008.14 1007.55 1007.94 1007.92 1008.18 1008.57 1007.98 1007.81 1008.43 1008.98 1009.96 1010.22 1010.75 1010.95 1010.98 1011.06 1011.42 1011.76 1012.10 1012.28 1012.37 1012.52 1012.74 1012.90 1012.94 1013.10 1013.36 1013.46 1013.58 1013.75 1013.82 1013.94 1014.11 1014.24 1014.34 1014.42 1014.50 1014.51 1014.54 1014.49
1009.08 1009.24 1010.06 1010.38 1010.45 1010.30 1008.87 1008.59 1007.83 1007.76 1007.86 1008.16 1007.89 1007.60 1007.13 1007.22 1007.73 1008.10 1008.46 1009.76 1010.59 1010.91 1010.82 1010.97 1011.20 1011.54 1011.84 1012.11 1012.40 1012.52 1012.63 1012.89 1013.06 1013.12 1013.20 1013.38 1013.51 1013.67 1013.88 1013.97 1013.99 1014.10 1014.19 1014.29 1014.42 1014.59 1014.66 1014.67 1014.63
1009.02 1009.58 1010.20 1010.33 1010.33 1009.26 1007.98 1006.44 1006.18 1007.42 1007.95 1009.00 1007.59 1006.84 1006.17 1006.26 1006.85 1007.45 1008.51 1009.50 1010.17 1010.84 1010.93 1011.00 1011.39 1011.74 1012.04 1012.23 1012.43 1012.63 1012.90 1013.10 1013.28 1013.22 1013.38 1013.55 1013.64 1013.67 1013.84 1014.00 1014.06 1014.09 1014.29 1014.41 1014.54 1014.62 1014.66 1014.68 1014.75
1009.14 1009.94 1010.66 1010.94 1010.11 1008.57 1007.60 1005.96 1007.01 1007.31 1007.75 1009.67 1009.58 1006.56 1006.54 1006.52 1006.92 1007.71 1008.80 1009.38 1009.77 1010.60 1010.75 1011.17 1011.51 1011.72 1012.09 1012.31 1012.53 1012.75 1013.04 1013.27 1013.45 1013.47 1013.58 1013.77 1013.89 1014.04 1014.18 1014.27 1014.39 1014.49 1014.61 1014.68 1014.71 1014.81 1014.83 1014.82 1014.75
1009.68 1010.36 1011.15 1011.06 1010.06 1008.56 1007.63 1006.46 1006.65 1006.45 1008.25 1009.01 1008.52 1006.59 1006.92 1007.03 1007.35 1007.99 1008.34 1008.81 1009.25 1009.74 1010.27 1010.77 1011.05 1011.33 1011.80 1012.16 1012.33 1012.72 1013.04 1013.37 1013.59 1013.66 1013.70 1013.90 1014.07 1014.22 1014.44 1014.52 1014.59 1014.68 1014.74 1014.77 1014.82 1014.88 1014.92 1014.85 1014.78
1010.02 1010.89 1011.07 1010.67 1009.89 1008.39 1007.98 1006.93 1006.95 1007.21 1006.99 1007.69 1007.21 1007.09 1006.98 1007.42 1007.37 1007.43 1007.80 1008.25 1008.81 1009.53 1010.32 1010.78 1010.94 1011.15 1011.54 1011.89 1012.17 1012.51 1012.93 1013.27 1013.51 1013.66 1013.76 1013.96 1014.14 1014.23 1014.38 1014.42 1014.44 1014.55 1014.60 1014.63 1014.71 1014.73 1014.75 1014.78 1014.71
1009.84 1010.72 1010.82 1010.50 1009.98 1008.83 1007.76 1007.22 1007.30 1007.29 1006.68 1005.41 1005.45 1006.33 1006.89 1007.09 1007.24 1007.41 1008.00 1008.78 1009.53 1010.18 1010.77 1011.08 1011.14 1011.38 1011.65 1011.89 1012.00 1012.19 1012.61 1013.04 1013.41 1013.74 1013.88 1014.01 1014.20 1014.26 1014.28 1014.41 1014.44 1014.53 1014.61 1014.64 1014.70 1014.76 1014.74 1014.73 1014.78
1009.42 1010.54 1010.59 1010.04 1009.52 1008.79 1007.78 1007.51 1007.10 1006.97 1006.16 1006.38 1005.68 1005.70 1006.21 1006.89 1007.79 1008.11 1008.85 1009.78 1010.34 1010.61 1010.78 1011.20 1011.17 1011.30 1011.46 1011.82 1011.95 1012.19 1012.38 1012.63 1013.12 1013.58 1013.81 1013.99 1014.22 1014.25 1014.36 1014.32 1014.36 1014.50 1014.52 1014.55 1014.64 1014.72 1014.80 1014.68 1014.60
1009.65 1010.30 1009.96 1008.94 1008.69 1008.27 1008.22 1007.68 1007.53 1007.39 1007.18 1006.88 1006.79 1006.90 1007.03 1007.04 1007.70 1008.56 1009.43 1009.84 1010.30 1010.31 1010.38 1010.56 1010.94 1011.26 1011.47 1011.59 1012.01 1012.38 1012.59 1012.67 1013.07 1013.29 1013.50 1013.72 1014.08 1014.31 1014.31 1014.35 1014.37 1014.23 1014.25 1014.30 1014.43 1014.53 1014.49 1014.43 1014.33
1009.36 1009.56 1009.00 1008.78 1008.36 1007.91 1007.55 1007.32 1007.24 1007.41 1007.58 1007.49 1007.23 1006.74 1006.75 1007.10 1007.90 1008.19 1008.47 1008.47 1008.99 1009.71 1010.38 1010.49 1010.98 1011.10 1011.56 1011.59 1012.27 1012.49 1012.70 1012.79 1013.13 1013.29 1013.25 1013.58 1014.01 1014.31 1014.43 1014.47 1014.29 1014.19 1014.13 1014.17 1014.03 1014.12 1014.35 1014.24 1014.21
1009.32 1008.74 1008.67 1008.02 1007.70 1007.75 1007.25 1006.48 1006.70 1007.49 1007.70 1007.06 1006.83 1006.63 1006.64 1006.65 1006.94 1007.73 1007.90 1007.64 1008.66 1009.45 1009.99 1010.27 1010.65 1011.01 1011.20 1011.57 1012.08 1012.34 1012.52 1012.78 1012.95 1013.04 1013.18 1013.70 1014.02 1014.18 1014.14 1014.16 1014.10 1014.12 1014.05 1014.22 1014.13 1013.95 1013.84 1014.03 1014.25
1009.08 1008.60 1007.93 1007.32 1007.07 1007.32 1006.98 1007.16 1006.61 1006.76 1007.14 1007.02 1006.89 1006.80 1006.87 1006.88 1006.96 1007.30 1007.68 1007.60 1008.12 1009.03 1009.59 1010.01 1010.42 1010.83 1010.98 1011.41 1011.80 1012.01 1012.43 1012.46 1012.45 1012.75 1013.15 1013.59 1013.88 1013.99 1013.72 1013.75 1013.88 1013.79 1014.18 1014.22 1014.28 1014.29 1013.88 1014.09 1014.19
1008.52 1008.39 1007.62 1007.15 1006.96 1007.19 1007.34 1007.03 1007.13 1006.95 1006.66 1006.91 1006.66 1006.97 1007.11 1007.28 1007.40 1007.69 1007.96 1008.27 1008.38 1008.91 1009.36 1009.78 1010.10 1010.32 1010.71 1011.24 1011.58 1011.81 1011.94 1012.02 1012.34 1012.71 1013.03 1013.15 1013.38 1013.52 1013.58 1014.00 1013.84 1013.81 1013.92 1014.05 1014.17 1014.27 1014.19 1014.31 1014.23
1008.35 1008.41 1007.57 1006.80 1006.75 1007.10 1007.03 1007.47 1006.84 1006.60 1006.81 1006.03 1006.88 1007.13 1006.83 1007.26 1007.72 1008.14 1008.43 1008.43 1008.50 1009.22 1009.42 1009.67 1009.93 1010.41 1010.76 1011.20 1011.32 1011.45 1011.62 1011.95 1012.35 1012.70 1012.96 1012.98 1013.08 1013.54 1013.62 1014.28 1014.03 1013.83 1013.87 1014.19 1014.30 1014.31 1014.09 1014.21 1014.27
1008.60 1008.55 1008.01 1007.11 1006.88 1006.65 1006.69 1006.54 1006.54 1006.64 1006.80 1006.83 1007.13 1007.29 1007.35 1008.77 1009.28 1009.15 1009.42 1009.60 1009.84 1010.19 1010.08 1009.77 1010.01 1010.80 1011.17 1011.24 1011.26 1011.58 1011.96 1012.23 1012.49 1012.80 1012.79 1012.80 1012.96 1013.21 1013.55 1013.88 1013.90 1013.98 1013.99 1014.24 1014.40 1014.30 1014.43 1014.65 1014.78
1009.76 1009.32 1008.63 1007.89 1006.68 1006.51 1006.76 1006.31 1006.16 1006.15 1006.71 1006.99 1007.13 1007.60 1008.71 1009.65 1010.04 1010.28 1010.22 1010.59 1010.90 1011.20 1011.22 1011.20 1010.99 1010.98 1011.33 1011.51 1011.39 1011.75 1012.25 1012.52 1012.71 1012.76 1012.75 1012.87 1013.12 1013.17 1013.59 1013.86 1014.09 1014.33 1014.34 1014.42 1014.52 1014.84 1015.07 1015.15 1014.94
1010.27 1009.60 1008.84 1008.19 1007.16 1006.37 1006.53 1006.34 1006.35 1006.39 1006.82 1007.17 1007.97 1008.88 1009.46 1010.15 1010.97 1010.86 1010.96 1011.23 1011.31 1011.43 1011.69 1011.55 1011.38 1011.63 1011.54 1011.54 1011.75 1012.27 1012.60 1012.62 1012.66 1012.87 1013.03 1013.24 1013.33 1013.51 1014.11 1014.49 1014.57 1014.52 1014.56 1014.84 1015.14 1015.36 1015.28 1015.33 1015.25
1010.19 1009.84 1009.58 1008.35 1007.43 1006.75 1006.96 1006.78 1006.57 1006.60 1007.11 1007.91 1008.86 1009.53 1010.30 1010.84 1011.26 1011.20 1011.21 1011.58 1012.05 1012.06 1012.10 1012.38 1012.35 1012.80 1012.46 1012.29 1012.45 1012.63 1013.27 1013.39 1013.32 1013.29 1013.34 1013.49 1013.73 1013.89 1014.39 1014.78 1014.77 1014.63 1014.96 1015.44 1015.67 1015.72 1015.78 1015.78 1015.83
1009.71 1009.63 1009.35 1008.59 1007.63 1007.45 1007.68 1007.52 1007.33 1007.23 1007.32 1007.73 1009.18 1010.17 1010.62 1011.36 1011.69 1011.74 1011.70 1011.69 1011.94 1012.38 1012.66 1012.99 1013.37 1013.27 1013.31 1013.38 1013.41 1013.29 1013.77 1013.91 1013.78 1014.16 1014.26 1014.34 1014.44 1014.57 1014.58 1014.86 1014.65 1014.76 1015.34 1015.84 1016.18 1016.44 1016.49 1016.38 1016.08
1009.88 1009.51 1009.50 1009.21 1008.78 1008.66 1008.82 1009.12 1008.41 1007.89 1008.05 1008.46 1009.23 1010.19 1011.07 1011.43 1012.01 1012.36 1012.39 1012.56 1012.84 1013.25 1013.30 1013.56 1013.82 1013.94 1014.08 1014.17 1013.82 1013.67 1013.98 1014.36 1014.67 1014.88 1015.08 1015.25 1014.86 1014.68 1014.77 1014.75 1014.91 1015.26 1015.80 1016.39 1016.63 1016.62 1016.84 1016.95 1016.37
1009.36 1009.41 1009.51 1009.86 1010.38 1010.73 1010.53 1011.28 1010.30 1009.60 1009.55 1009.68 1010.52 1010.82 1011.49 1012.07 1012.46 1012.73 1012.83 1013.05 1013.60 1014.18 1014.08 1014.11 1014.29 1014.33 1014.23 1014.17 1014.61 1014.86 1015.40 1015.86 1015.88 1015.63 1015.76 1015.57 1015.46 1015.12 1015.02 1015.35 1015.46 1015.73 1016.23 1016.68 1016.80 1016.83 1016.83 1016.85 1016.85
1009.54 1009.42 1009.82 1010.29 1011.20 1011.76 1012.05 1012.43 1012.53 1010.91 1011.57 1012.07 1012.45 1012.70 1013.36 1013.64 1013.78 1013.80 1013.73 1014.03 1014.47 1014.72 1015.08 1015.10 1015.10 1015.16 1015.18 1014.58 1014.51 1014.91 1014.96 1015.27 1015.51 1016.17 1016.14 1016.10 1015.79 1015.40 1015.59 1015.98 1015.98 1016.28 1016.57 1016.53 1016.57 1016.69 1016.79 1016.71 1016.85
1009.51 1010.11 1010.87 1011.77 1012.46 1013.66 1013.38 1013.11 1014.47 1013.47 1013.70 1013.79 1014.11 1014.34 1014.73 1014.68 1014.48 1014.53 1014.90 1015.09 1015.49 1015.66 1015.42 1015.22 1015.01 1015.19 1015.20 1015.53 1015.58 1015.21 1014.98 1014.95 1015.21 1015.60 1016.02 1016.20 1016.08 1015.99 1015.99 1016.14 1016.08 1016.10 1016.36 1016.20 1016.18 1016.38 1016.35 1016.28 1016.43
1010.40 1011.70 1013.02 1014.23 1014.71 1015.08 1014.36 1014.67 1015.57 1015.22 1014.51 1014.83 1014.99 1015.19 1015.47 1015.61 1015.62 1015.81 1015.80 1015.96 1016.01 1016.04 1015.97 1015.97 1016.02 1016.26 1015.98 1015.46 1015.40 1015.70 1015.78 1015.26 1015.27 1015.69 1015.70 1015.84 1015.84 1015.97 1016.04 1015.95 1015.92 1015.79 1015.53 1015.70 1015.62 1015.96 1015.98 1015.78 1015.80
1011.45 1012.63 1014.36 1015.73 1016.36 1016.06 1015.41 1015.91 1016.15 1015.65 1015.42 1015.49 1016.02 1016.54 1017.05 1017.20 1017.47 1017.63 1017.71 1018.14 1018.14 1017.89 1017.79 1017.37 1016.98 1016.82 1016.43 1016.48 1016.47 1015.89 1015.42 1015.48 1015.66 1015.77 1015.81 1016.00 1015.98 1015.59 1015.55 1015.60 1015.50 1015.37 1015.30 1015.18 1015.26 1015.60 1015.59 1015.46 1015.31
1011.99 1013.15 1014.14 1015.82 1017.06 1017.04 1017.18 1016.87 1016.23 1015.91 1016.51 1017.16 1018.12 1018.52 1019.14 1019.43 1019.34 1019.30 1019.30 1019.37 1019.24 1019.03 1018.84 1018.61 1018.03 1017.85 1017.59 1017.49 1017.23 1017.03 1016.27 1016.13 1015.88 1015.58 1015.33 1015.57 1015.65 1015.41 1015.28 1015.14 1015.01 1015.15 1015.11 1015.34 1015.10 1015.12 1015.14 1015.06 1015.20
1012.23 1013.32 1014.91 1016.90 1018.60 1019.12 1019.05 1018.50 1018.49 1018.14 1019.21 1019.42 1019.98 1020.32 1020.62 1020.83 1020.84 1020.76 1020.52 1020.21 1019.86 1019.53 1019.26 1018.96 1018.70 1018.59 1018.27 1017.89 1017.61 1017.45 1017.11 1016.53 1016.05 1015.69 1015.44 1015.23 1015.05 1014.97 1014.64 1014.43 1014.44 1014.80 1015.02 1015.39 1014.98 1014.76 1014.45 1014.82 1014.65
1013.33 1014.37 1016.07 1017.82 1019.31 1020.68 1021.21 1020.96 1020.69 1020.84 1020.98 1021.27 1021.66 1021.82 1022.01 1021.83 1021.56 1021.31 1020.88 1020.69 1020.43 1020.21 1019.95 1019.66 1019.32 1019.04 1018.77 1018.42 1018.16 1017.81 1017.34 1016.86 1016.32 1015.96 1015.67 1015.32 1015.06 1014.81 1014.46 1014.35 1014.46 1014.27 1014.25 1014.67 1014.61 1014.49 1014.34 1014.43 1014.26
1014.18 1015.37 1016.78 1018.97 1020.35 1021.17 1021.81 1023.17 1023.23 1023.03 1022.77 1022.52 1022.78 1022.68 1022.34 1022.06 1021.97 1021.76 1021.49 1021.17 1020.77 1020.41 1020.04 1019.75 1019.54 1019.30 1019.01 1018.60 1018.23 1017.84 1017.29 1016.85 1016.54 1016.15 1015.67 1015.32 1014.95 1014.61 1014.39 1014.20 1014.09 1014.09 1014.14 1014.02 1013.95 1014.22 1014.35 1014.37 1014.02
Wind_Speed
5 4 3 3 4 4 1 2 16 12 1 5 17 6 4 1 4 3 4 10 16 11 8 10 16 14 14 14 14 13 13 13 14 14 14 14 14 14 13 13 11 11 11 11 10 9 9 8 7
3 3 3 1 5 4 3 6 19 20 17 16 21 11 5 3 2 10 8 10 12 11 7 9 15 14 14 13 13 13 13 13 13 14 14 14 13 12 12 11 10 10 10 10 8 7 6 5 5
3 0 4 4 3 2 2 8 18 14 3 12 12 7 5 5 9 9 14 16 11 8 7 9 14 13 13 13 12 12 13 13 13 13 14 14 13 12 10 10 9 9 10 9 8 6 4 3 2
2 4 4 5 4 7 5 11 12 18 12 15 3 6 3 6 8 10 19 18 14 8 6 11 13 12 12 13 13 12 11 11 11 12 12 12 12 11 10 9 8 8 8 8 6 5 3 2 0
3 3 5 4 6 5 9 17 19 18 13 19 27 6 4 4 16 21 19 15 15 10 8 9 13 13 12 13 13 12 11 10 10 10 11 10 10 9 8 7 6 6 6 6 5 4 2 1 1
5 3 4 3 5 7 2 18 8 12 23 14 11 9 4 16 19 16 17 16 16 16 13 13 17 16 15 14 14 12 11 10 10 9 10 9 8 8 7 6 5 5 5 5 5 4 3 3 4
4 4 2 1 6 7 6 11 16 10 18 17 22 5 7 17 18 19 19 17 16 15 13 10 10 14 17 15 14 13 12 11 10 10 9 8 8 8 8 8 8 7 6 6 5 6 6 6 6
4 4 2 1 4 6 7 8 3 6 4 8 7 5 8 15 18 16 13 13 12 12 10 8 7 8 9 10 15 15 15 13 11 9 9 8 8 8 9 9 8 8 7 7 7 7 7 7 7
2 4 2 3 1 8 9 8 5 6 14 3 2 6 2 7 12 13 11 9 8 9 9 7 8 7 8 7 11 14 16 15 13 10 9 7 4 5 7 8 10 9 8 8 8 8 7 8 9
5 4 8 7 3 6 1 6 6 8 10 9 7 5 6 6 13 12 8 8 9 11 11 10 9 8 7 7 6 5 6 5 5 6 7 5 5 4 7 7 10 11 10 9 8 8 9 9 4
3 5 3 10 5 8 4 5 4 4 6 2 1 4 4 6 10 9 14 17 17 12 8 11 9 9 8 6 4 2 2 3 3 6 6 5 4 3 3 2 4 3 8 3 5 4 4 5 4
3 7 5 9 12 5 6 4 7 3 4 5 1 2 3 8 6 7 6 8 16 14 10 9 8 8 7 6 5 4 4 4 4 5 6 4 3 4 5 3 5 4 4 4 4 3 4 4 5
6 7 7 12 7 8 7 9 15 7 6 6 3 4 2 4 8 6 7 5 15 14 10 9 8 8 7 7 5 5 4 5 5 4 4 4 3 3 3 3 3 3 1 3 3 3 1 2 3
4 6 11 13 14 5 7 6 7 23 2 7 9 8 5 2 5 4 6 7 11 9 9 9 8 10 10 7 9 6 6 5 4 4 5 6 4 4 4 2 3 3 4 2 2 1 3 4 3
4 4 5 4 7 7 7 2 7 10 4 11 8 7 8 1 7 5 3 9 10 7 9 12 8 7 7 7 7 6 5 5 4 4 5 6 6 5 6 1 2 2 2 4 4 3 2 3 5
5 4 1 4 3 6 7 12 7 9 6 9 9 7 5 11 9 9 10 9 9 8 6 4 5 8 6 6 5 4 4 3 4 4 4 6 5 7 4 1 2 2 4 4 3 4 4 4 4
6 3 5 8 6 6 8 9 9 6 7 8 8 6 13 12 12 12 13 13 11 9 8 6 4 5 6 5 4 4 6 4 3 4 4 5 4 3 3 2 3 3 4 4 5 4 3 3 4
5 4 4 5 9 5 8 7 6 1 5 8 7 10 11 13 7 11 13 13 13 11 8 7 2 6 6 4 4 5 4 3 3 3 3 5 1 2 3 3 4 3 4 5 4 5 3 2 4
5 6 5 13 7 6 0 4 4 3 5 7 5 12 11 12 5 8 11 12 14 13 16 16 15 10 8 5 3 4 2 1 3 3 4 6 4 5 6 3 4 5 6 4 5 3 5 3 4
9 11 9 8 7 8 5 2 3 6 4 6 12 11 13 8 10 10 10 12 13 12 12 13 12 12 9 4 3 2 1 3 3 3 4 5 4 3 5 4 5 6 5 7 6 5 3 2 4
2 5 0 4 6 7 6 9 7 5 0 6 15 11 10 13 12 9 11 10 10 10 10 11 10 10 10 8 4 4 4 4 5 4 4 3 2 3 4 5 6 6 5 4 3 3 4 3 3
5 3 2 4 5 1 5 5 7 7 5 13 13 12 9 8 7 7 9 10 9 7 7 9 8 8 7 8 8 12 8 4 4 3 3 4 6 5 6 6 6 6 4 4 2 3 1 1 4
5 3 1 1 4 3 1 5 13 3 8 10 9 10 10 8 9 11 12 13 10 10 8 7 8 9 7 7 8 6 6 5 4 2 5 6 5 7 7 5 5 5 3 3 4 4 4 1 1
2 2 7 6 5 5 8 6 12 8 8 17 17 16 15 16 16 16 13 12 8 6 7 7 9 6 6 6 6 6 7 5 4 4 5 2 1 1 1 3 4 2 2 2 1 1 3 3 3
12 8 5 6 6 5 2 12 0 7 17 15 14 13 11 9 9 8 10 8 8 8 6 7 8 8 8 6 7 4 1 4 6 3 2 3 3 3 4 4 3 2 4 0 1 2 3 4 3
3 6 6 2 1 4 6 4 1 4 9 10 9 9 13 15 15 17 17 15 14 15 12 13 16 14 12 10 9 6 4 3 2 3 3 4 4 4 6 5 4 2 0 1 0 2 3 4 4
4 4 3 6 4 5 2 3 12 3 16 20 19 18 16 14 14 14 14 12 9 9 7 8 8 9 10 8 9 8 7 5 3 6 5 4 4 4 5 4 3 2 1 3 2 2 3 4 4
6 2 7 5 3 2 4 5 3 5 13 16 15 13 12 11 11 9 8 8 7 8 7 10 11 9 8 8 6 5 7 6 6 6 3 2 2 2 4 3 2 3 3 4 2 1 3 2 3
6 4 6 5 4 5 2 3 9 11 11 12 11 11 8 7 7 7 7 7 7 6 6 5 6 7 8 7 7 7 7 7 6 5 5 4 2 2 1 2 4 4 5 3 1 2 3 4 5
3 5 5 7 2 2 5 0 6 9 11 11 10 9 8 6 7 7 7 10 10 10 9 9 5 4 4 4 5 6 7 7 7 7 6 5 6 5 5 6 4 5 5 2 1 2 4 6 5
Wind_Direction
278 195 160 75 38 66 105 271 103 317 297 207 173 200 217 204 159 195 5 118 125 142 154 146 139 142 142 141 137 134 130 126 123 122 118 115 113 113 113 115 117 117 116 117 112 108 107 107 110
296 200 58 63 71 13 130 205 147 184 215 151 186 216 260 211 87 119 100 125 130 145 143 141 141 144 144 141 138 136 134 131 131 128 126 125 119 118 117 118 120 120 120 122 122 119 114 109 108
243 194 90 96 121 51 282 186 154 197 226 172 189 197 186 172 132 144 128 137 140 136 136 142 141 144 145 143 142 143 141 140 139 137 137 138 133 130 129 126 129 132 131 130 126 120 116 115 110
0 5 24 72 307 253 270 165 168 181 184 229 218 180 164 180 141 140 137 143 136 130 128 138 142 144 146 147 144 143 143 143 146 144 145 146 146 144 143 139 138 134 134 131 129 132 142 144 159
45 58 47 19 292 285 11 15 149 160 159 40 335 108 83 55 117 134 145 143 134 140 138 144 148 146 149 149 146 144 146 148 151 148 147 149 149 150 150 148 144 132 131 136 140 146 156 210 279
2 90 45 346 294 289 17 9 44 126 93 101 287 104 135 139 136 152 150 152 152 156 162 162 157 152 153 154 148 148 152 153 154 152 151 152 151 153 162 165 163 155 150 152 160 175 198 229 253
118 81 203 264 298 321 22 360 32 6 148 160 183 201 130 155 161 162 162 160 160 158 157 162 158 157 157 154 152 153 154 157 158 158 155 155 160 165 176 180 182 183 184 185 196 209 222 238 252
110 97 116 339 345 297 351 12 24 32 257 184 149 162 167 185 169 160 153 152 149 152 157 157 153 157 157 160 160 159 159 159 159 161 159 162 171 181 188 192 196 198 201 211 225 236 244 253 262
73 60 182 177 25 270 328 16 346 336 33 323 211 116 136 113 155 146 147 139 143 161 161 163 158 162 158 164 170 168 164 160 160 161 166 170 187 201 204 201 204 207 214 225 239 252 264 271 268
109 132 222 185 202 274 254 6 333 34 24 352 8 26 53 105 145 147 146 166 179 173 173 167 167 171 163 166 156 154 169 149 158 163 169 180 193 204 213 218 213 216 219 227 242 252 254 261 261
216 209 184 332 247 259 287 311 39 51 35 21 39 15 25 109 108 146 184 191 185 172 163 175 173 170 171 146 139 147 151 144 164 178 180 176 181 219 228 222 237 224 222 222 230 246 245 252 261
220 261 199 201 256 188 266 315 303 95 234 163 118 309 45 8 8 89 139 172 164 166 171 168 171 170 171 136 164 163 156 170 179 195 189 155 197 206 221 213 214 205 214 226 240 245 226 251 286
169 254 249 240 284 204 166 188 270 270 219 185 120 79 68 9 345 58 130 120 148 160 170 157 165 177 162 152 170 164 174 189 181 183 165 138 188 190 187 190 214 206 278 218 250 286 349 339 302
228 253 251 242 219 205 159 198 132 251 193 217 149 155 155 9 27 24 117 118 147 139 150 155 169 168 163 170 183 182 180 185 148 150 150 148 158 160 133 199 225 201 212 288 227 166 61 40 339
217 268 283 202 212 214 150 214 193 230 268 307 155 155 121 27 27 28 37 141 134 146 156 162 155 142 149 163 170 157 157 137 145 147 140 158 177 149 161 176 125 106 92 113 73 53 67 31 3
4 41 335 283 226 256 125 253 193 206 230 264 171 167 116 60 52 62 52 64 53 42 55 117 131 131 134 132 124 114 105 109 120 140 160 163 172 165 151 67 146 108 103 101 78 39 17 14 2
5 242 282 316 231 227 163 240 236 237 168 180 181 147 102 95 75 65 61 65 62 63 50 42 93 117 118 103 105 104 104 133 156 153 169 175 168 163 59 129 89 85 82 58 49 33 37 354 345
254 292 302 269 289 250 192 207 168 158 141 190 170 103 102 96 90 91 85 67 56 63 62 25 23 42 55 65 64 75 80 112 148 114 107 122 169 78 98 78 97 104 74 50 40 40 2 2 355
273 281 285 292 282 68 184 126 197 230 185 164 123 124 115 102 117 81 86 91 84 61 53 47 50 27 34 23 3 51 78 22 55 46 113 122 124 100 116 108 80 59 63 65 43 8 8 350 352
256 260 265 247 353 73 7 320 273 295 248 191 138 133 128 116 97 95 87 76 74 75 73 69 58 45 39 32 10 73 83 80 80 43 44 72 104 119 107 122 92 72 66 37 36 44 357 322 22
156 115 36 50 334 15 44 336 330 307 179 94 134 123 124 133 124 115 102 90 82 75 73 75 71 66 65 54 20 38 35 27 26 27 24 341 98 112 104 89 84 70 64 47 23 34 42 327 303
65 305 69 84 73 241 81 268 294 313 101 106 122 131 146 111 101 122 111 96 86 85 77 80 81 91 83 88 78 76 77 54 344 8 358 6 348 18 51 56 70 76 69 48 21 33 48 32 327
203 268 287 286 82 62 1 74 320 11 85 42 34 40 44 58 59 53 53 55 43 38 41 47 48 38 20 90 105 110 109 130 131 16 14 10 14 53 72 72 60 71 78 78 33 1 346 305 270
339 19 30 40 82 34 304 130 0 3 69 76 66 63 67 79 69 71 71 78 77 79 71 66 61 59 76 69 18 112 119 114 99 128 123 116 99 83 105 122 119 161 93 102 115 286 310 298 286
40 46 360 20 25 213 135 54 347 87 92 92 93 85 89 93 91 91 82 63 53 51 60 45 39 29 14 80 116 115 36 132 136 162 168 175 175 186 179 164 173 166 151 238 18 300 292 284 270
10 121 137 125 118 267 12 89 161 87 89 79 59 64 46 36 37 43 44 41 38 40 35 33 27 21 8 4 358 5 136 162 177 198 191 209 226 199 191 182 167 172 168 353 338 296 287 279 277
321 40 159 109 356 69 75 161 28 41 69 61 57 55 52 48 41 41 40 38 26 32 48 36 27 20 26 19 6 346 353 350 289 230 193 205 227 218 217 202 194 237 248 273 230 232 302 336 294
90 239 34 11 83 75 338 60 172 5 64 65 53 47 40 38 39 36 33 22 15 20 12 25 20 13 1 359 3 356 346 332 323 336 289 233 234 262 219 193 214 250 283 270 226 307 358 324 305
359 28 59 104 112 139 137 278 29 59 57 57 47 41 36 31 23 11 6 14 15 15 13 9 8 0 352 348 347 347 336 331 336 326 300 282 281 289 343 314 271 238 218 215 25 352 331 320 299
105 64 92 111 251 116 140 129 4 46 51 47 28 10 357 4 5 359 7 356 350 346 341 342 342 342 313 303 326 323 323 328 322 311 301 293 275 272 271 280 282 276 250 166 92 325 297 289 301